Home > Weather > Honolulu > Past weeks

Flag for USA Past Weather in Honolulu, Hawaii, USA — Yesterday and Last 2 Weeks

Now
76 °F

Passing clouds.


Feels Like: 77 °F
Forecast: 74 / 85 °F
Wind: 16 mph from East

Location: Honolulu International Airport

Current Time: Jul 26, 2016 at 9:56:29 PM

Latest Report: Jul 26, 2016 at 8:53 PM


Visibility: 10 mi

Pressure: 30.02 "Hg

Humidity: 82%

Dew Point: 70 °F

Location of HonoluluLocation

Past Weather in Honolulu — Graph

°F

Honolulu Temperature Yesterday

Maximum temperature yesterday: 82 °F (at 5:53 PM)
Minimum temperature yesterday: 73 °F (at 1:05 AM)
Average temperature yesterday: 77 °F

High & Low Weather Summary for the Past Weeks

 TemperatureHumidityPressure
High91 °F (Jul 14, 2:53 PM)100% (Jul 24, 6:00 PM)30.07 "Hg (Jul 24, 6:00 PM)
Low69 °F (Jul 26, 4:53 AM)45% (Jul 12, 2:53 PM)29.82 "Hg (Jul 24, 1:53 PM)
Average80 °F73%29.96 "Hg
* Reported Jul 11 7:53 PM — Jul 26 7:53 PM, Honolulu, Weather by CustomWeather, © 2016

Note: Actual official high and low records may vary slightly from our data, if they occured in-between our weather recording intervals... More about our weather records

Advertising

Honolulu Weather History for the Previous 24 Hours

Scroll right to see more
 ConditionsComfort  
Time TempWeatherWind HumidityBarometerVisibility
7:53 PM
Tue, Jul 26
77 °FPassing clouds.12 mph79%30.01 "Hg10 mi
6:53 PM77 °FScattered clouds.14 mph79%30.00 "Hg10 mi
5:53 PM78 °FScattered clouds.15 mph74%29.98 "Hg10 mi
4:53 PM81 °FScattered clouds.17 mph65%29.97 "Hg10 mi
3:53 PM82 °FScattered clouds.17 mph63%29.97 "Hg10 mi
2:53 PM82 °FScattered clouds.16 mph60%29.97 "Hg10 mi
1:53 PM83 °FBroken clouds.17 mph63%29.98 "Hg10 mi
12:53 PM82 °FBroken clouds.14 mph65%29.99 "Hg10 mi
11:53 AM80 °FBroken clouds.13 mph71%30.00 "Hg10 mi
10:53 AM79 °FBroken clouds.14 mph77%30.01 "Hg10 mi
9:53 AM78 °FBroken clouds.14 mph82%30.01 "Hg10 mi
8:53 AM78 °FScattered clouds.10 mph79%30.01 "Hg10 mi
7:53 AM76 °FPartly sunny.No wind82%30.00 "Hg10 mi
6:53 AM73 °FScattered clouds.8 mph90%30.00 "Hg10 mi
5:53 AM73 °FPassing clouds.9 mph90%29.98 "Hg10 mi
4:53 AM69 °FPassing clouds.3 mph100%29.98 "Hg10 mi
3:53 AM72 °FPassing clouds.No wind87%29.97 "Hg10 mi
2:53 AM72 °FPassing clouds.3 mph91%29.97 "Hg10 mi
1:53 AM73 °FPassing clouds.6 mph88%29.98 "Hg10 mi
12:53 AM73 °FPassing clouds.5 mph88%30.00 "Hg10 mi
11:53 PM
Mon, Jul 25
74 °FPassing clouds.3 mph88%30.01 "Hg10 mi
10:53 PM75 °FPassing clouds.5 mph85%30.01 "Hg10 mi
9:53 PM75 °FPassing clouds.9 mph82%30.01 "Hg10 mi
Weather by CustomWeather, © 2016

See weather overviewHow to use our weather pages